[[{"header":{"parameterUnit":"m.s-1","parameterCategory":1,"la1":30.2991,"la2":30.254,"lo1":-89.0895,"lo2":-89.0444,"dy":0.0017,"dx":0.0017,"nx":28,"ny":28,"refTime":"2024-10-18T03:00:00:Z","depth":0,"parameterNumber":2,"parameterNumberName":"U-component_of_WINDS"},"data":[0,0,0,0,0,0,0,0,0,0,0,0,0,0,0,0,0,0,0,0,0,0,0,0,0,0,0,0,0,0,0,0,0,0,0,0,0,0,0,0,0,0,0,0,0,0,0,0,0,0,0,0,0,0,0,0,0,0,-5.3433,-5.3433,0,-5.345,-5.345,-5.3451,-5.3311,-5.3307,-5.3303,-5.3299,-5.332,-5.3324,-5.3328,0,0,0,0,0,0,0,0,0,0,0,0,0,-5.3282,-5.3286,-5.3433,-5.3433,-5.3433,-5.345,-5.345,-5.3451,-5.3311,-5.3307,-5.3302,-5.3297,-5.3318,-5.3323,-5.3328,0,0,0,0,0,0,0,0,0,0,0,0,0,-5.3329,-5.3287,-5.3433,-5.3366,-5.336,-5.345,-5.345,-5.3451,-5.3312,-5.3306,-5.3301,-5.3295,-5.3317,-5.3323,-5.3329,-5.3485,0,0,-5.3348,-5.3351,0,0,0,0,0,0,0,0,-5.3326,-5.3334,-5.3375,-5.3371,-5.3364,-5.3372,-5.3405,-5.3462,-5.3314,-5.3331,-5.3299,-5.3292,-5.3342,-5.3346,-5.3362,-5.3486,-5.3487,-5.3349,-5.3352,-5.3355,-5.3357,0,0,0,0,0,0,0,-5.3323,-5.3333,-5.344,-5.3376,-5.3369,-5.3336,-5.3336,-5.3415,-5.3369,-5.3329,-5.3318,-5.3322,-5.3338,-5.3356,-5.3361,-5.3487,-5.3348,-5.3354,-5.3358,-5.336,-5.3743,-5.3749,0,0,0,0,0,0,-5.3328,-5.3331,-5.3439,-5.344,-5.333,-5.3343,-5.3343,-5.3376,-5.3368,-5.3361,-5.3327,-5.3316,-5.3348,-5.3354,-5.3362,-5.3546,-5.3355,-5.3361,-5.3365,-5.3736,-5.3744,-5.3751,0,0,0,0,0,0,-5.3326,-5.3339,-5.3438,-5.3383,-5.3393,-5.3352,-5.3389,-5.3379,-5.3397,-5.3367,-5.3358,-5.3355,-5.3344,-5.3353,-5.3456,-5.3544,-5.3364,-5.3369,-5.3729,-5.3739,-5.3748,-5.3915,0,0,0,0,0,0,-5.3322,-5.3339,-5.3397,-5.3385,-5.3396,-5.3532,-5.3395,-5.3384,-5.3408,-5.3393,-5.339,-5.3384,-5.334,-5.3447,-5.3462,-5.355,-5.3374,-5.3721,-5.3733,-5.3744,-5.3901,-5.3929,-5.3953,0,0,0,0,0,-5.3317,-5.3444,-5.3401,-5.3415,-5.3468,-5.3537,-5.3544,-5.349,-5.3416,-5.3475,-5.3455,-5.3384,-5.3532,-5.3459,-5.3474,-5.3566,-5.3715,-5.373,-5.3744,-5.389,-5.3923,-5.3952,0,0,0,0,0,0,-5.3468,-5.3441,-5.3393,-5.3519,-5.3532,-5.3513,-5.3586,-5.3527,-5.3561,-5.3546,-5.3479,-5.3479,-5.3594,-5.3589,-5.3508,-5.3717,-5.3611,-5.3629,-5.3716,-5.3748,-5.3773,-5.3773,-5.338,0,0,0,0,0,-5.3516,-5.3573,-5.3547,-5.3661,-5.3669,-5.3627,-5.3655,-5.3613,-5.3623,-5.3628,-5.3615,-5.3629,-5.3679,-5.3713,-5.3757,-5.3899,-5.3898,-5.397,-5.3996,-5.4017,-5.4034,-5.4112,-5.4144,-5.3798,-5.3798,-5.3798,0,0,-5.3615,-5.3608,-5.3648,-5.3691,-5.3695,-5.3758,-5.3632,-5.3703,-5.3749,-5.3638,-5.3735,-5.3727,-5.3738,-5.3862,-5.3916,-5.3862,-5.4129,-5.4035,-5.4052,-5.4058,-5.413,-5.4163,-5.4192,-5.3808,-5.3806,-5.3805,0,0,-5.3829,-5.3829,-5.3924,-5.3932,-5.394,-5.3911,-5.3935,-5.3925,-5.3916,-5.4012,-5.3931,-5.3985,-5.4071,-5.4083,-5.41,-5.4321,-5.4257,-5.4337,-5.4472,-5.4548,-5.4576,-5.4599,-5.468,-5.471,-5.4353,-5.4354,-5.4354,0,-5.3952,-5.4042,-5.3981,-5.4058,-5.4081,-5.3983,-5.4081,-5.4091,-5.4114,-5.4132,-5.407,-5.4178,-5.4178,-5.4305,-5.4359,-5.4375,-5.4402,-5.4337,-5.4576,-5.46,-5.4621,-5.4698,-5.4728,-5.4364,-5.4363,-5.4362,-5.4361,0,-5.4194,-5.4258,-5.4335,-5.4359,-5.439,-5.4477,-5.4431,-5.4469,-5.4425,-5.4403,-5.4504,-5.45,-5.4543,-5.4569,-5.4526,-5.4691,-5.4658,-5.4588,-5.4479,-5.4665,-5.4736,-5.4764,-5.4378,-5.4374,-5.4371,-5.4369,0,0,-5.4504,-5.4494,-5.4524,-5.4535,-5.4537,-5.4586,-5.4669,-5.471,-5.4746,-5.4765,-5.4835,-5.4911,-5.4847,-5.4867,-5.4824,-5.4891,-5.5069,-5.4813,-5.4812,-5.4862,-5.5253,-5.5307,-5.5342,-5.5026,-5.5031,-5.5036,-5.5253,0,-5.4714,-5.4855,-5.4804,-5.4949,-5.5009,-5.4917,-5.499,-5.5001,-5.4983,-5.5032,-5.5012,-5.5068,-5.4978,-5.499,-5.5052,-5.5034,-5.5147,-5.5017,-5.5093,-5.5096,-5.5095,-5.5379,-5.5436,-5.5641,-5.528,-5.5285,-5.5288,0,-5.4978,-5.5008,-5.516,-5.5154,-5.5177,-5.5244,-5.5278,-5.5325,-5.5336,-5.5319,-5.5342,-5.5286,-5.5369,-5.526,-5.5375,-5.5288,-5.5316,-5.5312,-5.5319,-5.5325,-5.5205,-5.5395,-5.5705,-5.5737,-5.533,-5.5327,-5.5324,0,-5.5192,-5.527,-5.5371,-5.5383,-5.5378,-5.5428,-5.5428,-5.5433,-5.5462,-5.5492,-5.5511,-5.5551,-5.5574,-5.5607,-5.5564,-5.5488,-5.5686,-5.5573,-5.5676,-5.5678,-5.5723,-5.5721,-5.6044,-5.5738,-5.5738,-5.5737,-5.5736,0,-5.5433,-5.553,-5.5467,-5.553,-5.5637,-5.5577,-5.5684,-5.5675,-5.568,-5.5741,-5.5664,-5.5722,-5.5661,-5.5714,-5.5681,-5.5783,-5.5793,-5.5783,-5.5773,-5.5791,-5.5793,-5.5809,-5.5795,-5.5745,-5.5743,-5.5742,-5.574,0,-5.569,-5.5651,-5.5756,-5.5743,-5.5743,-5.5822,-5.5812,-5.587,-5.5847,-5.5924,-5.5939,-5.5904,-5.5963,-5.5923,-5.5982,-5.596,-5.6094,-5.6063,-5.6091,-5.6083,-5.6189,-5.6181,-5.6536,-5.6581,-5.6244,-5.6248,-5.625,0,-5.5847,-5.5919,-5.5915,-5.595,-5.5955,-5.6012,-5.6041,-5.5985,-5.6019,-5.6038,-5.6095,-5.6147,-5.6186,-5.6285,-5.6266,-5.6311,-5.6282,-5.6404,-5.6289,-5.6305,-5.6287,-5.6284,-5.6292,-5.6428,-5.6432,-5.6435,-5.6437,0,-5.6131,-5.6109,-5.6153,-5.6193,-5.623,-5.6258,-5.628,-5.6313,-5.6257,-5.6299,-5.6359,-5.6389,-5.645,-5.6504,-5.6542,-5.6543,-5.6483,-5.6474,-5.65,-5.652,-5.6534,-5.653,-5.6156,-5.6466,-5.6463,-5.6461,-5.646,-5.6458,-5.6344,-5.6405,-5.6412,-5.6465,-5.6476,-5.6499,-5.6554,-5.6538,-5.6586,-5.6631,-5.6595,-5.6667,-5.6678,-5.6722,-5.6732,-5.6788,-5.6739,-5.6777,-5.6787,-5.6798,-5.6814,-5.6524,-5.6795,-5.6794,-5.6793,-5.6792,-5.6792,0,-5.6626,-5.6627,-5.6676,-5.6709,-5.6752,-5.6689,-5.6711,-5.6751,-5.6815,-5.683,-5.687,-5.694,-5.6992,-5.6977,-5.7024,-5.7072,-5.7046,-5.7087,-5.7084,-5.7086,-5.6854,-5.6828,-5.7108,-5.7108,-5.7108,-5.7107,-5.7107,-5.7107,-5.6778,-5.6879,-5.6859,-5.6965,-5.6964,-5.7033,-5.7052,-5.7073,-5.7085,-5.7166,-5.7209,-5.7198,-5.7202,-5.7249,-5.7295,-5.7289,-5.7312,-5.7363,-5.7348,-5.7133,-5.7102,-5.7072,-5.7047,-5.7368,-5.7369,-5.7575,-5.7577,-5.7578]},{"header":{"parameterUnit":"m.s-1","parameterCategory":1,"la1":30.2991,"la2":30.254,"lo1":-89.0895,"lo2":-89.0444,"dy":0.0017,"dx":0.0017,"nx":28,"ny":28,"refTime":"2024-10-18T03:00:00:Z","depth":0,"parameterNumber":3,"parameterNumberName":"V-component_of_WINDS"},"data":[0,0,0,0,0,0,0,0,0,0,0,0,0,0,0,0,0,0,0,0,0,0,0,0,0,0,0,0,0,0,0,0,0,0,0,0,0,0,0,0,0,0,0,0,0,0,0,0,0,0,0,0,0,0,0,0,0,0,-1.3911,-1.3911,0,-1.3899,-1.3899,-1.3899,-1.3849,-1.3848,-1.3847,-1.3846,-1.3836,-1.3837,-1.3837,0,0,0,0,0,0,0,0,0,0,0,0,0,-1.3892,-1.3893,-1.3911,-1.3911,-1.3911,-1.3899,-1.3899,-1.3899,-1.3849,-1.3848,-1.3847,-1.3845,-1.3835,-1.3836,-1.3837,0,0,0,0,0,0,0,0,0,0,0,0,0,-1.3893,-1.3893,-1.3911,-1.3885,-1.3882,-1.3899,-1.3899,-1.3899,-1.385,-1.3848,-1.3846,-1.3845,-1.3835,-1.3836,-1.3838,-1.388,0,0,-1.3841,-1.3842,0,0,0,0,0,0,0,0,-1.3893,-1.3893,-1.3889,-1.3887,-1.3884,-1.3874,-1.3889,-1.3893,-1.385,-1.3862,-1.3846,-1.3844,-1.385,-1.385,-1.3852,-1.3879,-1.3879,-1.3841,-1.3842,-1.3843,-1.3843,0,0,0,0,0,0,0,-1.3893,-1.3894,-1.3907,-1.3889,-1.3886,-1.3874,-1.3872,-1.3889,-1.3866,-1.3861,-1.3857,-1.3856,-1.3848,-1.385,-1.3851,-1.3879,-1.3841,-1.3842,-1.3843,-1.3844,-1.3941,-1.3943,0,0,0,0,0,0,-1.3896,-1.3894,-1.3907,-1.3906,-1.3884,-1.3876,-1.3873,-1.3879,-1.3866,-1.3862,-1.3858,-1.3854,-1.3849,-1.385,-1.385,-1.39,-1.3843,-1.3844,-1.3844,-1.3939,-1.3941,-1.3943,0,0,0,0,0,0,-1.3896,-1.3898,-1.3907,-1.3899,-1.3899,-1.3878,-1.3884,-1.388,-1.3882,-1.3863,-1.3859,-1.3864,-1.3848,-1.3849,-1.3873,-1.3899,-1.3844,-1.3845,-1.3937,-1.394,-1.3943,-1.3999,0,0,0,0,0,0,-1.3896,-1.3898,-1.3914,-1.39,-1.39,-1.393,-1.3886,-1.3881,-1.3884,-1.3879,-1.3868,-1.3865,-1.3847,-1.3871,-1.3874,-1.3899,-1.3846,-1.3935,-1.3938,-1.3942,-1.3995,-1.4003,-1.401,0,0,0,0,0,-1.3895,-1.3931,-1.3915,-1.3917,-1.3919,-1.3931,-1.3932,-1.3909,-1.3886,-1.3902,-1.389,-1.3865,-1.3895,-1.3874,-1.3877,-1.3903,-1.3933,-1.3937,-1.3941,-1.3991,-1.4001,-1.401,0,0,0,0,0,0,-1.3949,-1.3928,-1.3911,-1.3942,-1.3939,-1.3923,-1.3943,-1.3921,-1.3925,-1.392,-1.3892,-1.389,-1.3919,-1.3913,-1.389,-1.3943,-1.391,-1.3915,-1.3947,-1.3956,-1.3964,-1.3966,-1.3847,0,0,0,0,0,-1.3965,-1.3976,-1.3957,-1.3987,-1.3986,-1.3965,-1.3969,-1.3952,-1.3948,-1.3946,-1.3936,-1.3933,-1.3942,-1.3948,-1.3955,-1.3993,-1.399,-1.4012,-1.402,-1.4026,-1.4032,-1.4052,-1.4061,-1.3957,-1.3957,-1.3957,0,0,-1.3997,-1.3987,-1.3996,-1.3998,-1.3993,-1.4006,-1.3964,-1.3979,-1.3989,-1.3949,-1.3971,-1.3963,-1.3959,-1.399,-1.4003,-1.3986,-1.4059,-1.4032,-1.4037,-1.4039,-1.4057,-1.4067,-1.4076,-1.396,-1.396,-1.3959,0,0,-1.4064,-1.4056,-1.4081,-1.4076,-1.4069,-1.4055,-1.4061,-1.4047,-1.4041,-1.4062,-1.4033,-1.4043,-1.4059,-1.4057,-1.4058,-1.4122,-1.41,-1.4124,-1.4167,-1.4187,-1.4195,-1.4202,-1.4226,-1.4235,-1.4129,-1.4129,-1.4129,0,-1.4105,-1.4123,-1.4096,-1.4113,-1.4115,-1.4078,-1.4103,-1.41,-1.4096,-1.4099,-1.4079,-1.4097,-1.4091,-1.4122,-1.4137,-1.4139,-1.4145,-1.4127,-1.4196,-1.4203,-1.4209,-1.4232,-1.4241,-1.4133,-1.4132,-1.4132,-1.4132,0,-1.4175,-1.4188,-1.4208,-1.4205,-1.4208,-1.4229,-1.4206,-1.4213,-1.4195,-1.4183,-1.4205,-1.4196,-1.4201,-1.4207,-1.4189,-1.4235,-1.4224,-1.4201,-1.4167,-1.4223,-1.4244,-1.4252,-1.4137,-1.4136,-1.4135,-1.4134,0,0,-1.4278,-1.4257,-1.4266,-1.4264,-1.4252,-1.4262,-1.4281,-1.4285,-1.4292,-1.429,-1.4306,-1.4319,-1.4297,-1.4298,-1.428,-1.4297,-1.435,-1.4271,-1.4271,-1.4287,-1.44,-1.442,-1.443,-1.4334,-1.4335,-1.4336,-1.4401,0,-1.4342,-1.4373,-1.4349,-1.4385,-1.4397,-1.4361,-1.4378,-1.4373,-1.4361,-1.437,-1.4357,-1.4367,-1.4336,-1.4337,-1.4352,-1.434,-1.4372,-1.4335,-1.435,-1.4351,-1.4355,-1.4441,-1.4461,-1.4523,-1.4409,-1.441,-1.4411,0,-1.4422,-1.4423,-1.446,-1.4446,-1.445,-1.4465,-1.4467,-1.4475,-1.4469,-1.4459,-1.446,-1.4437,-1.4455,-1.442,-1.4446,-1.4421,-1.4425,-1.442,-1.4422,-1.4424,-1.4386,-1.4447,-1.4542,-1.4552,-1.4424,-1.4423,-1.4422,0,-1.4495,-1.4505,-1.4528,-1.4528,-1.4511,-1.4523,-1.4517,-1.4509,-1.4513,-1.4514,-1.4516,-1.4519,-1.4522,-1.4525,-1.4504,-1.448,-1.4533,-1.4496,-1.4527,-1.4527,-1.4541,-1.4541,-1.464,-1.4541,-1.4541,-1.4541,-1.454,0,-1.4571,-1.4595,-1.4561,-1.4576,-1.4602,-1.4574,-1.4601,-1.4591,-1.4584,-1.4597,-1.4565,-1.4578,-1.4548,-1.4558,-1.4541,-1.4566,-1.4566,-1.456,-1.4556,-1.4564,-1.4565,-1.4568,-1.4564,-1.4543,-1.4542,-1.4542,-1.4542,0,-1.4658,-1.4636,-1.4659,-1.4641,-1.4637,-1.4658,-1.4643,-1.4656,-1.4641,-1.4658,-1.466,-1.4638,-1.4647,-1.4626,-1.4633,-1.4622,-1.4657,-1.4645,-1.4659,-1.4656,-1.4689,-1.4687,-1.4795,-1.4808,-1.4699,-1.47,-1.4701,0,-1.4709,-1.4727,-1.471,-1.4716,-1.4711,-1.4721,-1.4724,-1.4696,-1.4701,-1.4695,-1.4709,-1.4716,-1.472,-1.4738,-1.4723,-1.4728,-1.4717,-1.4754,-1.4718,-1.4725,-1.4719,-1.472,-1.4722,-1.4763,-1.4764,-1.4765,-1.4766,0,-1.4802,-1.479,-1.4795,-1.4797,-1.4801,-1.4801,-1.4799,-1.4806,-1.4776,-1.4783,-1.4792,-1.4795,-1.4802,-1.481,-1.4811,-1.4805,-1.4782,-1.4777,-1.4785,-1.4795,-1.4803,-1.4801,-1.4682,-1.4775,-1.4774,-1.4774,-1.4773,-1.4773,-1.4874,-1.4888,-1.4879,-1.4886,-1.4881,-1.4879,-1.4891,-1.4877,-1.4884,-1.4887,-1.4869,-1.4883,-1.4875,-1.4875,-1.4871,-1.4882,-1.4865,-1.4876,-1.4879,-1.4883,-1.4889,-1.4799,-1.4882,-1.4881,-1.4881,-1.4881,-1.488,0,-1.4967,-1.4959,-1.4965,-1.4963,-1.4968,-1.4943,-1.4939,-1.4946,-1.4958,-1.4952,-1.4957,-1.4967,-1.4974,-1.4959,-1.4964,-1.4975,-1.4964,-1.4977,-1.4977,-1.4977,-1.4902,-1.4896,-1.4986,-1.4986,-1.4986,-1.4986,-1.4986,-1.4986,-1.5016,-1.5039,-1.5026,-1.5046,-1.5038,-1.505,-1.505,-1.5048,-1.5044,-1.5057,-1.5062,-1.5052,-1.5043,-1.5046,-1.5052,-1.5047,-1.5051,-1.5069,-1.5061,-1.4992,-1.4982,-1.4972,-1.4966,-1.5069,-1.5069,-1.5134,-1.5135,-1.5135]}]]